TimePDT,TemperatureF,Dew PointF,Humidity,Sea Level PressureIn,VisibilityMPH,Wind Direction,Wind SpeedMPH,Gust SpeedMPH,PrecipitationIn,Events,Conditions,WindDirDegrees,DateUTC
12:56 AM,64.0,54.0,70,29.97,10.0,South,5.8,-,N/A,,Mostly Cloudy,180,2011-10-16 07:56:00
1:56 AM,64.0,54.0,70,29.98,10.0,South,5.8,-,N/A,,Mostly Cloudy,180,2011-10-16 08:56:00
2:56 AM,64.4,53.6,68,29.98,10.0,Calm,Calm,-,N/A,,Mostly Cloudy,0,2011-10-16 09:56:00
3:56 AM,64.0,55.0,73,29.98,10.0,Calm,Calm,-,N/A,,Mostly Cloudy,0,2011-10-16 10:56:00
4:56 AM,64.0,55.0,73,29.99,10.0,South,6.9,-,N/A,,Mostly Cloudy,180,2011-10-16 11:56:00
5:25 AM,64.4,55.4,73,30.00,10.0,South,3.5,-,N/A,,Mostly Cloudy,170,2011-10-16 12:25:00
5:56 AM,64.9,55.0,70,30.00,10.0,South,6.9,-,N/A,,Mostly Cloudy,190,2011-10-16 12:56:00
6:56 AM,64.4,55.4,73,30.00,10.0,SE,4.6,-,N/A,,Mostly Cloudy,130,2011-10-16 13:56:00
7:56 AM,64.0,55.0,73,30.02,10.0,Calm,Calm,-,N/A,,Mostly Cloudy,0,2011-10-16 14:56:00
8:56 AM,66.0,55.0,68,30.06,10.0,Variable,5.8,-,N/A,,Mostly Cloudy,0,2011-10-16 15:56:00
9:56 AM,66.0,55.0,68,30.07,10.0,SSW,8.1,-,N/A,,Mostly Cloudy,210,2011-10-16 16:56:00
10:56 AM,66.9,55.0,66,30.07,10.0,South,6.9,-,N/A,,Mostly Cloudy,180,2011-10-16 17:56:00
11:18 AM,66.2,55.4,68,30.07,10.0,Calm,Calm,-,N/A,,Mostly Cloudy,0,2011-10-16 18:18:00
11:56 AM,69.1,55.0,61,30.07,10.0,South,4.6,-,N/A,,Scattered Clouds,190,2011-10-16 18:56:00
12:56 PM,70.0,55.0,59,30.06,10.0,Calm,Calm,-,N/A,,Scattered Clouds,0,2011-10-16 19:56:00
1:56 PM,72.0,55.9,57,30.05,10.0,WSW,9.2,-,N/A,,Scattered Clouds,250,2011-10-16 20:56:00
2:56 PM,70.0,55.9,61,30.05,10.0,WNW,17.3,-,N/A,,Mostly Cloudy,290,2011-10-16 21:56:00
3:56 PM,68.0,55.4,64,30.05,10.0,West,12.7,-,N/A,,Mostly Cloudy,270,2011-10-16 22:56:00
4:56 PM,66.9,55.0,66,30.05,10.0,West,12.7,-,N/A,,Scattered Clouds,280,2011-10-16 23:56:00
5:56 PM,64.0,55.0,73,30.04,10.0,West,12.7,-,N/A,,Scattered Clouds,270,2011-10-17 00:56:00
6:56 PM,63.0,55.0,75,30.04,10.0,West,9.2,-,N/A,,Scattered Clouds,280,2011-10-17 01:56:00
7:56 PM,63.0,55.0,75,30.06,10.0,West,12.7,-,N/A,,Partly Cloudy,280,2011-10-17 02:56:00
8:56 PM,62.1,54.0,75,30.07,10.0,West,9.2,-,N/A,,Clear,270,2011-10-17 03:56:00
9:56 PM,61.0,55.0,81,30.08,10.0,WNW,10.4,-,N/A,,Scattered Clouds,290,2011-10-17 04:56:00
10:56 PM,60.1,55.0,83,30.09,10.0,West,11.5,-,N/A,,Scattered Clouds,280,2011-10-17 05:56:00
11:56 PM,60.1,55.0,83,30.09,10.0,West,9.2,-,N/A,,Scattered Clouds,270,2011-10-17 06:56:00